Orbital elements:
2017 BK229                                                                      
Epoch 2024 Mar. 31.0 TT = JDT 2460400.5                 Alexandersen            
M 191.84841              (2000.0)            P               Q                  
n   0.00325208     Peri.   79.23547     +0.84229169     +0.51409034             
a  45.1192487      Node   249.65168     -0.53690489     +0.77356041             
e   0.0821553      Incl.    9.95189     -0.04772670     +0.37056095             
P 303              H    7.91          G   0.15           U   6                  
Residuals in seconds of arc
160115 T09  0.1+  0.1-    170221 T09  0.1-  0.0     170304 T09  0.2+  0.0
160115 T09  0.1-  0.2+    170221 T09  0.2+  0.0     170304 T09  0.1+  0.2+
160115 T09  0.1+  0.2+    170221 T09  0.0   0.1-    170304 T09  0.0   0.1-
161225 T09  0.0   0.2-    170221 T09  0.1+  0.2-    170304 T09  0.0   0.1+
161225 T09  0.3+  0.2-    170221 T09  0.1+  0.2-    170304 T09  0.2+  0.1-
161225 T09  0.2-  0.0     170221 T09  0.0   0.1+    170304 T09  0.2-  0.1-
170121 T09  0.1-  0.1+    170221 T09  0.2-  0.2+    170304 T09  0.2+  0.2+
170121 T09  0.1+  0.0     170221 T09  0.4-  0.1+    170304 T09  0.1+  0.1+
170121 T09  0.0   0.2-    170223 T09  0.2+  0.1+    170304 T09  0.1+  0.0
170121 T09  0.1+  0.1-    170223 T09  0.1-  0.0     170304 T09  0.2+  0.1-
170123 T09  0.1+  0.1-    170223 T09  0.0   0.0     170304 T09  0.2-  0.2+
170123 T09  0.2-  0.2-    170223 T09  0.3-  0.1+    170304 T09  0.2-  0.1-
170123 T09  0.0   0.1+    170223 T09  0.0   0.2+    170306 T09  0.1-  0.1-
170123 T09  0.1-  0.2-    170223 T09  0.1+  0.2+    170306 T09  0.1+  0.0
170123 T09  0.1+  0.1-    170223 T09  0.0   0.1+    170306 T09  0.0   0.0
170123 T09  0.1+  0.2-    170223 T09  0.1-  0.1+    170325 T09  0.0   0.1+
170130 T09  0.0   0.1+    170223 T09  0.1+  0.2+    170325 T09  0.2+  0.1-
170130 T09  0.0   0.0     170225 T09  0.4-  0.1+    170325 T09  0.0   0.2-
170130 T09  0.0   0.2-    170225 T09  0.1-  0.1+    170325 T09  0.1+  0.2-
170130 T09  0.1-  0.0     170225 T09  0.0   0.0     170325 T09  0.2-  0.1-
170130 T09  0.1+  0.0     170225 T09  0.2+  0.2+    170325 T09  0.2+  0.1+
170201 T09  0.2+  0.6-    170304 T09  0.3+  0.1+    180117 T09  0.2+  0.2+
170201 T09  0.0   0.3+    170304 T09  0.1-  0.2-    180117 T09  0.2+  0.0
170201 T09  0.5-  0.1+    170304 T09  0.2+  0.2-    180117 T09  0.3-  0.1-
170201 T09  0.1-  0.3+    170304 T09  0.3+  0.2+    180117 T09  0.1+  0.0
170221 T09  0.2-  0.0     170304 T09  0.2-  0.1+    180117 T09  0.0   0.2+
170221 T09  0.0   0.1+    170304 T09  0.0   0.2+
170221 T09  0.0   0.0     170304 T09  0.0   0.1-

Ephemeris:
2017 BK229               a,e,i = 45.12, 0.08, 10                 q = 41.4125
Date    TT    R. A. (2000) Decl.     Delta      r    Elong.  Phase     V
2024 01 30    10 28 40.5 -01 20 41  47.9196 48.7608   148.3     0.6    24.9
...
2024 02 14    10 27 44.0 -01 16 25  47.8191 48.7602   162.2     0.4    24.8
...
2024 02 22    10 27 12.0 -01 13 36  47.7922 48.7599   168.0     0.2    24.8
...
2024 02 28    10 26 47.9 -01 11 17  47.7846 48.7597   169.8     0.2    24.8
2024 02 29    10 26 43.9 -01 10 53  47.7843 48.7596   169.8     0.2    24.8
2024 03 01    10 26 39.9 -01 10 29  47.7844 48.7596   169.7     0.2    24.8
...
2024 03 07    10 26 16.1 -01 08 01  47.7912 48.7594   167.2     0.3    24.8
...
2024 03 15    10 25 45.3 -01 04 35  47.8169 48.7591   161.2     0.4    24.8
...
2024 03 30    10 24 53.0 -00 58 02  47.9137 48.7585   147.5     0.6    24.9

M. P. C. Staff               (C) Copyright 2024 MPC           M.P.E.C. 2024-D138





More information about the Iaude mailing list